Regional Weather Roundup
Issued by NWS

Home | Current Version | Previous Version | Text Only | Print | Product List | Glossary Off
Versions: 1 2 3 4 5 6 7 8 9 10 11 12 13 14 15 16 17 18 19 20 21 22 23 24 25 26 27 28 29 30 31 32 33 34 35 36 37 38 39 40 41 42 43 44 45 46 47 48 49 50

565
ASUS43 KMPX 222210
RWRMN
WEATHER ROUNDUP FOR MINNESOTA
NATIONAL WEATHER SERVICE TWIN CITIES/CHANHASSEN MN
500 PM CDT FRI SEP 22 2017


NOTE: "FAIR" INDICATES FEW OR NO CLOUDS BELOW 12,000 FEET WITH NO
SIGNIFICANT WEATHER AND/OR OBSTRUCTIONS TO VISIBILITY. N/A MEANS
CURRENT SKY AND/OR WEATHER CONDITIONS ARE NOT AVAILABLE.

MNZ060>063-068>070-222300-
   Twin Cities Metro

CITY           SKY/WX    TMP DP  RH WIND       PRES   REMARKS
TWIN CITIES    MOSUNNY   94  70  45 S20       29.79S HX 100
ST PAUL        SUNNY     92  71  50 SE15G22   29.79S HX  98
CRYSTAL        SUNNY     92  68  45 S15G23    29.76F HX  96
BLAINE         MOSUNNY   93  70  46 S15G21    29.78F HX  99
LAKEVILLE      SUNNY     91  70  49 S15G21    29.80S HX  97
EDEN PRAIRIE   SUNNY     92  71  50 S15       29.77F HX  98
SOUTH ST PAUL  SUNNY     93  67  42 S9G22     29.79F HX  96
LAKE ELMO      FAIR      90  72  55 S12G18    29.82S HX  96
$$
MNZ001>005-007-008-013>017-022>024-027-028-222300-
   Northwest Minnesota

CITY           SKY/WX    TMP DP  RH WIND       PRES   REMARKS
BEMIDJI        PTSUNNY   75  70  84 SE9       29.72F
HALLOCK          N/A     72  55  56 E18G26    29.69F
ROSEAU         PTSUNNY   70  63  78 NE14      29.74F
WARROAD        CLOUDY    68  63  83 NE10      29.76F
THIEF RVR FALL CLOUDY    75  67  76 NE12      29.69F
CROOKSTON      MOSUNNY   79  66  65 NE8       29.66F
FOSSTON        MOSUNNY   81  70  69 SE8       29.69S
DETROIT LAKES  SUNNY     82  70  65 S15G26    29.69F
MOORHEAD       MOSUNNY   86  72  62 SE15      29.64S HX  92
PARK RAPIDS    CLOUDY    83  73  72 SE12      29.72F
MAHNOMEN       FAIR      83  70  66 S18G25    29.68S
$$
MNZ006-009>011-018-025>026-222300-
   North Central Minnesota

CITY           SKY/WX    TMP DP  RH WIND       PRES   REMARKS
BAUDETTE       CLOUDY    72  66  81 NE9       29.75R
FLAG ISLAND    SUNNY     72  57  60 NE9       29.76F
INTL FALLS     MOSUNNY   76  67  73 E9        29.76F
WASKISH        CLOUDY    75  68  78 S5        29.75R
BIG FORK       PTSUNNY   75  70  83 S7        29.75F
LONGVILLE      CLOUDY    79  72  78 S10       29.74R
GRAND RAPIDS   CLOUDY    79  72  79 SE13G18   29.77F
CRANE LAKE     PTSUNNY   75  66  73 CALM      29.80S
ORR            CLOUDY    79  66  65 SE8G16    29.75F
COOK           MOSUNNY   75  70  83 SE8       29.79F
WALKER         FAIR      78  72  81 SE8       29.73F
$$
MNZ012-019>021-037-222300-
   Northeast Minnesota

CITY           SKY/WX    TMP DP  RH WIND       PRES   REMARKS
DULUTH         MOSUNNY   77  71  82 S8        29.83S
ELY            SUNNY     79  64  61 S9        29.82F
HIBBING        CLOUDY    76  70  82 S10       29.78F
EVELETH        SUNNY     78  68  71 SE7       29.81F
DULUTH HARBOR  SUNNY     70  64  83 E5        29.82S
TWO HARBORS    SUNNY     81  72  74 S6        29.82S
GRAND MARAIS     N/A     66  61  84 E7        29.86R
G MARAIS ARPRT CLOUDY    72  57  60 CALM      29.91R
$$
MNZ029>031-032-039>041-046>048-054>057-064-222300-
   West Central Minnesota

CITY           SKY/WX    TMP DP  RH WIND       PRES   REMARKS
FERGUS FALLS   MOSUNNY   86  72  62 SE14G21   29.64F HX  92
WHEATON        SUNNY     90  66  45 S15G23    29.65S HX  92
MORRIS         SUNNY     91  70  49 S20G26    29.66S HX  97
ELBOW LAKE     FAIR      86  73  64 S16G25    29.67F HAZE    HX  92
WADENA         MOSUNNY   82  72  69 SE15G21   29.71F
GLENWOOD       SUNNY     90  73  58 SE12G18   29.72F HX  98
APPLETON       SUNNY     91  66  43 S12G21    29.66S HX  94
BENSON         MOSUNNY   91  70  49 SW18      29.69S HX  97
ORTONVILLE     SUNNY     91  70  49 N16G28    29.65F HX  97
MADISON        SUNNY     93  70  46 S20G28    29.67S HX  99
WILLMAR        FAIR      90  72  55 SE12G18   29.72F HX  96
$$
MNZ033>034-036-042>043-049>051-058-059-222300-
   Central Minnesota

CITY           SKY/WX    TMP DP  RH WIND       PRES   REMARKS
ST CLOUD       SUNNY     89  74  60 SE15      29.74F HX  98
SAUK CENTRE    FAIR      86  72  63 SE17G23   29.73F HX  92
PAYNESVILLE    SUNNY     89  71  55 SE10G22   29.74S HX  96
AITKIN         SUNNY     82  72  69 S16       29.74F
PINE RIVER     PTSUNNY   79  70  73 S14       29.77F
BRAINERD       SUNNY     84  72  67 S14G23    29.74F
STAPLES        SUNNY     82  72  69 S15G21    29.72F
LITTLE FALLS   SUNNY     86  64  48 SE17G23   29.74S
LITCHFIELD     SUNNY     91  72  52 S9        29.74S HX  98
BUFFALO        SUNNY     89  69  51 SE12G21   29.77F HX  93
MAPLE LAKE     SUNNY     90  74  59 SE8       29.76F HX  98
HUTCHINSON     MOSUNNY   91  74  56 SE9       29.76S HX 101
$$
MNZ037-044-045-052-053-222300-
   East Central Minnesota

CITY           SKY/WX    TMP DP  RH WIND       PRES   REMARKS
PRINCETON      SUNNY     91  73  55 SE15G22   29.77F HX 100
MORA           SUNNY     86  70  58 S9        29.79F HX  90
RUSH CITY      SUNNY     89  71  54 S10G22    29.79F HX  95
MOOSE LAKE     SUNNY     82  72  69 S7        29.77F
HINCKLEY       FAIR      88  73  62 SE10G16   29.79F HX  96
CLOQUET        SUNNY     81  70  69 SE9G16    29.81F
MCGREGOR       MOSUNNY   82  72  69 SE14      29.78S
$$
MNZ071>073-080-081-089-090-097-098-222300-
   Southwest Minnesota

CITY           SKY/WX    TMP DP  RH WIND       PRES   REMARKS
MONTEVIDEO     MOSUNNY   93  70  46 SW17G24   29.68S HX  99
GRANITE FALLS  MOSUNNY   91  72  52 S17G23    29.71S HX  98
CANBY          SUNNY     91  68  47 S14G23    29.70R HX  94
REDWOOD FALLS  LGT RAIN  94  68  42 S26G36    29.71F HX  98
OLIVIA         CLOUDY    90  68  48 S13G23    29.72S HX  93
PIPESTONE      SUNNY     90  70  51 SW16G26   29.75S HX  95
WINDOM         SUNNY     91  66  43 S16G25    29.76S HX  94
WORTHINGTON    SUNNY     90  70  51 S18G32    29.76F HX  95
JACKSON        SUNNY     90  64  43 S20G26    29.80S HX  91
TRACY          SUNNY     91  71  52 S16       29.73S HX  97
SLAYTON        SUNNY     89  59  35 S22G28    29.76F HAZE
$$
MNZ065>067-074>077-082>085-091>093-222300-
   South Central Minnesota

CITY           SKY/WX    TMP DP  RH WIND       PRES   REMARKS
MANKATO        SUNNY     91  71  51 S17G29    29.79R HX  97
NEW ULM        SUNNY     91  66  43 S21G30    29.75S HX  94
ST JAMES       SUNNY     93  68  43 S18G35    29.78R HX  97
FAIRMONT       SUNNY     92  70  48 S24G30    29.79S HX  97
GLENCOE        SUNNY     93  74  54 S13G28    29.76S HX 103
FARIBAULT      SUNNY     90  70  51 S14G26    29.82S HX  95
OWATONNA       SUNNY     91  70  49 S18       29.83S HX  97
WASECA         SUNNY     91  68  46 S15G25    29.84R HX  95
ALBERT LEA     SUNNY     93  66  40 S13G21    29.85S HX  96
$$
MNZ078>079-086>088-094>096-222300-
   Southeast Minnesota

CITY           SKY/WX    TMP DP  RH WIND       PRES   REMARKS
ROCHESTER      SUNNY     89  67  47 S21G30    29.89S HX  92
RED WING       SUNNY     93  61  33 S14G21    29.82R HX  93
STANTON        SUNNY     92  67  43 S12G24    29.80S HX  96
DODGE CENTER   SUNNY     90  63  40 S21G28    29.87S HX  90
WINONA         SUNNY     95  64  36 S5        29.87S HX  97
AUSTIN         SUNNY     90  64  43 S20       29.87F HX  91
PRESTON        SUNNY     89  63  41 S17G25    29.91S
$$
ABBREVIATIONS USED IN REMARKS
   TC - TEMPERATURES IN CELSIUS
  WCI - WIND CHILL INDEX
   HX - HEAT INDEX
  VSB - VISIBILITY
$$




USA.gov is the U.S. government's official web portal to all federal, state and local government web resources and services.